RH
100 99 97 96 93 98 82 78 74 61 48 46 42 37 38 37 32 41 59 40 29 24 25 35 56 55 64 57 33 36 42 42 49 58 77 69 60 52 46 44 40 44 55 55 57
100 100 98 95 81 81 85 93 95 100 100 100 100 93 80 66 65 91 78 77 70 45 36 22 23 40 40 52 37 29 35 39 43 48 53 61 69 69 63 52 47 50 54 49 51
100 100 98 98 100 100 100 100 100 100 100 85 62 48 38 31 30 34 33 31 33 29 25 19 17 16 23 31 44 42 26 33 37 41 43 48 53 62 63 61 50 53 52 49 45
100 100 100 100 100 100 98 81 69 56 47 40 31 23 20 19 21 20 17 18 18 18 18 20 16 15 13 16 21 29 25 25 30 37 41 43 47 54 54 57 53 47 52 60 46
100 100 99 88 89 83 88 82 68 39 28 21 17 14 15 13 14 12 13 14 13 13 16 16 14 13 14 16 17 18 18 22 24 32 42 40 44 48 65 64 51 46 44 52 52
87 78 88 100 91 78 57 43 32 21 18 16 13 11 10 12 10 11 11 12 12 12 15 15 16 17 14 15 16 16 18 24 21 23 30 45 41 43 54 64 59 50 49 54 61
100 100 100 92 75 50 32 28 25 20 17 15 12 10 10 13 10 11 10 10 10 11 12 14 14 13 14 16 19 16 20 23 23 19 22 34 50 50 46 46 51 62 66 86 88
100 100 88 74 57 33 26 24 20 18 15 12 11 11 11 11 11 10 10 12 10 10 12 13 14 14 14 13 15 18 21 23 24 22 20 22 40 64 60 48 38 47 62 76 99
92 84 64 50 36 24 21 20 20 18 14 11 11 10 9 10 9 10 9 10 11 10 9 12 13 15 14 14 14 16 20 22 25 24 22 21 23 32 62 55 46 35 44 58 78
46 42 45 45 30 22 20 19 22 19 14 11 11 10 9 9 10 9 9 9 9 9 9 9 12 14 16 17 16 19 22 26 24 24 22 23 23 30 37 40 47 41 36 42 54
45 51 71 61 32 21 20 19 20 20 16 14 12 9 9 9 8 8 8 8 9 8 9 9 10 14 17 17 15 15 20 22 22 20 21 22 26 34 34 29 34 47 39 36 37
49 55 63 59 47 24 20 16 14 12 13 13 12 10 8 8 8 8 9 9 9 9 9 10 11 12 15 16 16 16 18 20 18 18 18 21 25 30 28 25 30 48 50 48 40
52 57 67 71 58 27 21 17 14 13 12 11 10 10 10 8 10 11 11 10 10 10 10 10 11 12 13 16 17 18 17 17 17 16 17 18 22 26 28 29 27 33 48 48 44
60 62 65 72 64 26 23 20 15 14 13 11 11 10 10 9 10 11 12 12 11 11 10 10 12 12 13 14 16 18 18 17 16 15 15 16 18 22 23 26 28 29 34 53 54
71 80 68 67 43 29 23 20 17 14 13 12 11 9 9 9 9 9 10 12 11 11 12 12 12 12 12 14 17 18 18 17 17 16 18 18 17 18 20 22 25 28 25 28 38
78 72 67 59 48 30 24 21 18 14 14 11 10 8 8 9 8 10 8 11 11 11 12 14 14 14 12 13 15 17 18 18 18 17 17 18 16 18 17 18 21 24 24 24 27
81 72 75 55 40 28 27 22 19 15 13 11 10 10 9 9 9 10 10 10 12 13 13 15 15 14 13 14 15 15 17 19 19 18 16 17 17 19 18 17 19 21 22 22 23
95 77 91 65 35 26 26 19 16 15 14 11 10 10 11 10 10 8 11 11 11 13 13 14 14 14 14 14 14 15 17 18 19 19 18 16 17 19 19 18 18 18 18 19 21
90 92 91 65 37 30 28 19 15 16 14 11 11 10 12 10 11 10 10 12 13 13 13 15 16 18 16 14 14 15 17 18 18 19 19 18 16 16 15 16 16 16 16 18 20
86 85 94 57 35 36 29 19 15 15 13 11 11 11 11 10 12 11 11 10 11 12 14 17 16 16 17 18 17 16 16 17 19 19 20 20 18 16 16 16 15 14 15 17 18
78 73 78 44 36 30 27 17 15 14 13 11 11 11 10 11 12 12 11 10 11 13 14 14 16 16 17 20 19 18 17 16 17 20 21 21 20 17 16 16 16 17 16 16 18
72 77 56 44 41 28 21 16 15 14 12 11 12 11 11 13 12 13 12 11 12 12 13 16 16 17 19 19 20 19 19 19 19 20 21 21 20 19 18 16 16 15 16 19 21
63 73 48 40 39 28 16 15 16 13 12 11 11 10 13 13 11 13 13 12 13 12 13 17 21 18 18 20 21 21 21 20 20 19 19 18 18 17 18 18 17 16 16 15 14
59 57 45 40 31 21 14 15 16 12 10 11 11 10 13 11 11 13 14 13 12 13 13 16 16 18 17 18 19 19 20 19 19 19 18 19 17 17 16 16 16 16 16 16 15
73 48 39 37 28 18 15 16 15 11 10 11 10 10 12 10 11 12 14 14 13 12 12 14 18 21 22 21 19 18 20 21 20 19 20 17 16 16 15 16 15 15 14 13 13
67 52 42 35 25 15 15 16 14 10 10 11 9 10 11 10 10 12 14 14 13 12 10 13 15 16 18 21 22 21 22 22 21 20 19 18 15 17 17 16 16 15 15 15 14
54 52 39 31 20 16 16 14 12 10 11 10 9 10 10 11 10 11 14 12 12 11 12 14 15 13 15 16 18 20 20 21 20 19 18 17 18 18 19 18 17 16 16 15 14
Wind_Speed
70 72 71 69 67 69 73 75 77 79 82 83 84 84 83 79 78 78 80 88 88 88 90 90 91 89 88 80 76 73 68 65 73 80 80 78 75 75 72 70 67 65 62 60 57
72 74 76 76 76 76 78 79 81 84 88 90 91 91 91 90 89 90 95 96 99 100 94 99 99 97 93 91 85 82 72 72 76 79 81 80 80 76 74 72 70 69 68 64 59
73 76 76 75 75 77 80 84 88 93 96 100 102 102 102 97 95 99 99 101 103 105 104 104 103 101 97 99 95 91 83 83 81 79 81 82 80 80 77 76 75 74 71 68 65
71 74 74 77 81 85 90 96 101 103 106 104 102 100 97 92 90 95 94 94 92 95 101 103 99 98 99 97 101 100 94 94 88 83 81 82 82 78 80 79 80 79 76 72 72
73 75 79 84 89 92 94 97 105 107 104 101 97 88 84 73 80 85 85 88 88 88 96 99 99 98 97 99 99 96 96 100 98 88 84 81 82 80 78 79 82 81 81 78 75
78 81 82 84 91 97 100 102 105 104 98 94 88 81 75 73 74 72 72 74 76 80 85 91 95 98 96 100 97 93 98 100 101 97 88 87 84 83 79 79 81 82 81 80 79
74 78 82 89 96 95 91 96 97 96 94 90 84 78 68 79 69 69 66 65 67 72 74 84 93 95 90 93 97 94 96 100 99 101 97 94 89 81 87 85 79 78 81 79 80
79 83 87 91 96 92 86 80 82 86 85 83 78 73 69 72 69 65 61 65 65 68 71 79 77 86 91 92 96 98 95 99 100 98 103 102 93 90 89 86 86 84 82 83 81
82 82 82 86 87 80 73 72 77 81 82 79 74 70 67 67 62 64 61 62 62 63 66 71 72 78 84 86 93 99 94 96 102 101 101 102 98 101 96 91 88 87 88 85 85
67 68 76 84 85 78 73 71 74 76 82 77 71 65 63 60 61 63 61 61 56 60 58 64 68 72 76 80 79 90 98 98 99 104 105 103 99 101 100 98 92 89 89 90 89
69 72 81 89 90 82 72 70 68 70 80 74 71 64 62 59 59 56 57 58 57 59 55 60 62 65 74 80 87 89 99 101 103 104 104 104 101 104 103 102 98 94 91 90 93
74 75 84 91 97 89 79 76 70 67 64 71 66 60 56 54 49 44 47 50 51 53 59 60 59 67 74 78 80 88 97 101 104 105 105 106 104 107 105 102 100 98 98 96 92
73 79 86 93 99 94 88 79 75 71 68 65 62 54 46 44 42 38 39 44 44 46 54 60 62 66 69 72 77 80 86 91 96 102 105 104 107 101 106 103 103 104 100 101 97
80 83 87 95 100 94 91 85 79 76 69 62 55 49 45 40 40 39 36 38 37 39 43 49 53 58 62 66 71 76 80 87 91 93 99 105 106 107 107 106 105 105 105 104 104
81 85 92 97 97 97 89 86 84 80 70 60 54 47 45 38 34 37 35 37 37 33 38 47 49 56 60 65 68 74 79 81 84 87 92 98 103 106 104 107 110 106 106 105 107
86 87 91 98 102 101 93 88 85 81 70 61 53 46 40 34 28 31 31 35 37 34 37 38 44 50 59 62 66 70 74 76 77 81 83 89 97 102 107 107 109 109 109 107 107
88 89 95 100 102 102 96 90 88 79 68 60 51 42 36 30 25 25 30 32 35 37 37 38 42 48 53 58 62 63 67 71 75 75 74 80 85 89 98 102 106 108 111 110 109
92 94 96 103 104 101 99 92 86 77 70 58 49 38 32 26 22 20 24 29 34 39 39 40 41 45 49 54 59 63 66 69 71 70 70 74 77 81 85 93 97 102 108 109 110
91 94 98 104 106 104 102 95 84 76 66 58 46 34 26 25 21 21 20 24 31 37 38 43 44 44 45 49 53 58 60 61 64 67 70 72 72 75 80 85 89 92 99 104 106
89 91 96 105 104 104 102 94 82 73 62 53 45 31 22 24 22 20 24 26 27 30 36 43 45 46 45 46 48 54 58 58 59 63 67 68 68 70 73 75 80 84 88 95 101
90 92 99 105 105 103 99 90 81 71 58 49 42 28 23 22 21 21 26 25 25 28 32 39 45 44 43 44 45 48 51 55 57 58 62 65 66 68 68 70 70 73 78 84 90
93 97 102 105 110 105 93 86 79 68 54 45 38 24 23 20 20 19 23 25 26 28 26 31 40 42 42 43 43 43 45 49 51 55 59 62 63 64 66 66 66 67 70 73 76
91 97 104 106 108 105 91 83 75 63 49 41 32 22 20 19 18 18 21 23 24 24 24 28 38 42 41 39 40 41 43 45 48 52 53 55 60 62 61 61 63 64 66 68 69
100 103 108 108 109 100 88 80 71 56 44 36 28 20 17 17 17 17 19 19 22 25 26 29 31 37 39 39 38 38 40 41 45 49 50 52 53 53 53 54 56 57 59 61 63
97 105 109 109 110 98 86 76 63 50 40 33 25 18 15 17 16 16 17 18 20 25 27 26 26 30 36 39 38 36 36 37 40 40 44 46 47 45 45 46 46 49 53 56 58
103 108 112 110 108 93 82 68 58 46 37 30 22 16 14 16 16 16 17 17 18 20 22 26 29 32 36 39 39 35 34 35 35 36 39 39 40 35 39 42 45 45 46 47 46
103 109 111 111 102 88 77 63 53 42 34 27 19 14 13 16 16 16 18 18 16 15 16 19 25 27 31 36 38 38 37 34 33 34 34 33 32 36 38 36 36 36 36 35 35
Wind_Direction
297 299 298 297 293 288 288 287 285 284 283 281 281 279 278 277 273 274 274 268 265 259 257 251 248 246 247 247 243 237 236 236 241 239 238 238 238 239 239 241 241 243 242 243 245
297 296 295 294 294 292 291 289 286 283 281 279 278 277 277 278 276 275 271 270 268 265 260 259 248 246 245 245 243 241 237 236 235 239 238 237 238 238 240 239 240 241 241 241 242
295 294 296 296 294 290 288 287 284 281 279 279 280 280 279 277 274 270 266 264 262 262 260 255 252 245 245 245 242 246 236 236 235 234 238 236 236 238 237 240 241 241 242 242 241
294 294 292 290 289 287 287 287 285 283 284 285 285 285 282 280 276 269 266 264 261 259 257 255 252 249 246 245 242 241 239 237 235 233 233 236 235 235 237 238 240 240 241 240 242
292 293 293 293 295 293 290 289 288 291 292 290 289 286 283 281 274 270 265 262 261 257 254 253 252 250 246 243 240 237 235 235 236 233 230 233 235 233 232 234 237 238 240 241 241
296 298 298 295 293 293 295 296 295 296 296 295 293 290 288 285 277 271 263 258 254 254 248 249 246 246 245 242 240 234 232 230 233 233 233 229 231 232 231 230 234 236 237 239 241
301 299 297 297 298 302 302 301 299 300 297 295 293 292 291 282 280 275 270 260 253 249 247 243 242 247 243 239 240 235 231 228 228 230 230 231 228 230 233 230 231 234 235 235 237
301 303 301 301 300 302 307 307 303 301 298 296 296 294 290 284 280 276 270 267 258 249 244 244 242 242 240 240 237 234 229 227 227 227 228 230 229 229 232 232 230 231 233 235 235
303 305 305 304 306 312 312 317 311 308 303 299 298 295 290 286 284 278 270 262 260 253 243 243 241 240 240 239 234 231 230 227 226 226 226 228 227 230 232 232 232 233 234 233 235
312 313 314 313 317 319 322 321 316 310 304 304 302 298 294 288 281 274 268 266 261 256 246 241 241 238 236 234 234 233 229 227 227 227 225 226 225 228 230 231 230 231 234 236 234
322 322 325 322 322 323 325 323 319 315 308 306 304 300 295 288 278 272 268 264 259 255 249 243 239 236 233 231 230 230 227 226 228 227 227 225 223 227 228 230 231 229 231 234 237
324 324 325 325 325 327 328 324 316 313 311 308 304 300 293 285 279 273 267 260 256 250 242 240 237 233 231 229 230 229 227 229 229 229 227 226 223 227 228 229 229 228 230 232 235
327 325 326 327 326 329 331 328 323 321 318 314 308 304 297 286 284 277 266 260 252 243 238 234 233 233 230 229 227 227 228 230 232 233 231 228 224 225 226 228 230 229 229 232 233
329 328 326 327 327 331 334 333 327 325 323 317 312 307 298 289 282 275 264 257 252 242 236 234 231 231 233 231 228 227 228 228 231 233 233 231 226 226 226 227 229 230 230 232 232
330 329 327 325 325 331 334 333 331 327 326 322 316 309 301 293 281 270 260 255 252 246 239 228 226 227 226 227 227 227 226 226 228 231 232 232 230 229 228 228 228 231 231 232 233
330 329 328 325 327 330 336 334 333 328 328 324 320 313 303 298 285 271 258 248 248 245 241 231 225 227 227 226 226 226 227 226 227 229 230 232 232 231 231 231 232 231 232 233 234
331 331 329 325 326 331 336 335 333 329 329 325 322 316 307 301 289 266 257 247 242 240 237 233 227 225 223 224 226 227 226 226 228 227 227 229 231 230 232 232 232 234 233 234 234
329 332 330 326 328 333 336 334 333 330 328 327 323 319 308 299 291 276 257 248 243 236 235 234 229 227 223 223 225 224 223 225 227 227 228 230 227 226 230 233 234 235 235 235 235
330 330 330 326 328 333 336 334 332 330 328 325 322 320 304 296 289 283 267 247 239 236 231 227 226 223 225 226 223 225 226 226 227 228 228 230 229 228 231 232 235 236 236 236 237
328 330 328 326 331 333 334 332 330 330 327 324 321 316 301 294 284 267 255 249 241 237 228 221 224 223 223 223 224 223 224 224 225 225 226 229 230 230 231 232 237 239 237 236 237
329 327 326 327 331 335 334 331 329 329 326 323 318 313 302 292 278 260 247 245 234 230 230 225 221 223 222 221 221 223 223 222 223 223 225 228 229 231 233 233 236 239 240 239 240
328 326 326 328 330 333 332 331 329 328 325 322 316 309 301 286 270 258 241 233 228 227 225 222 223 220 220 221 221 220 221 222 223 224 226 227 230 232 233 234 235 237 239 240 241
327 325 326 328 329 332 332 331 329 326 323 321 314 307 295 277 268 254 239 228 219 221 219 214 216 218 219 220 219 218 218 219 220 224 227 228 230 234 235 237 238 239 240 242 244
326 325 325 330 331 332 332 331 328 325 322 318 309 304 284 270 263 252 239 226 217 214 210 215 219 218 221 222 220 219 219 219 219 222 224 227 231 233 235 237 240 241 242 243 246
327 327 327 331 331 332 331 331 328 324 321 315 306 301 275 266 256 244 236 224 218 214 213 210 206 210 216 220 221 220 218 218 219 221 223 227 231 232 235 236 238 239 239 240 244
326 326 327 330 332 332 332 331 328 325 320 312 304 297 274 260 247 234 228 220 216 217 219 212 210 209 210 212 214 216 216 216 217 219 222 223 230 228 231 232 234 236 239 242 245
325 326 328 329 331 330 332 331 327 325 318 310 301 292 270 250 239 226 218 209 207 205 207 214 219 220 216 214 211 211 211 213 214 216 218 219 221 222 226 231 235 239 242 246 247